User: anonymous   Login
Location: Unspecified
(0.0000°N, 0.0000°E)
Time: 19:17:17
(UTC+00:00)
Language:

USA-164 - Orbit

View from above orbital plane
View from above orbital plane
View from above satellite
View from above satellite

Ground track
Ground track

The orbit data is extracted from the following two-line orbital elements,

1 27168U 02001A   18108.47171746 0.00000000  00000-0  00000-0 0    05
2 27168   7.9503  35.3471 0003997 329.9785  29.9629  1.00270000    01
Epoch (UTC): 18 April 2018 11:19:16
Eccentricity: 0.0003997
inclination: 7.9503°
perigee height: 35770 km
apogee height: 35803 km
right ascension of ascending node: 35.3471°
argument of perigee: 329.9785°
revolutions per day: 1.00270000
mean anomaly at epoch: 29.9629°
orbit number at epoch: 0

The dashed part of the orbit path shows where the satellite is in the earth's shadow,  

DLR